Temperature
26 25 24 23 22 21 21 21 20 20 19 19 19 19 19 19 19 19 18 18 18 18 18 18 18 18 18 18 18 18 18 18 18 18 18 18 18 18 18 18 17 17 17
26 25 25 24 23 22 21 21 20 20 20 20 20 19 19 19 19 19 19 19 18 18 18 18 18 18 18 18 18 18 18 18 18 18 18 18 18 18 18 18 17 17 17
27 26 25 24 23 22 22 21 21 20 20 20 20 19 19 19 19 19 19 19 19 18 18 18 18 18 18 18 18 18 18 18 18 18 18 18 18 18 18 18 18 17 17
28 26 25 24 24 23 22 21 21 21 21 20 20 20 19 19 19 19 19 19 19 18 18 18 18 18 18 18 18 18 18 18 18 18 18 18 18 18 17 18 17 17 17
28 27 26 25 24 23 22 22 21 21 21 20 20 20 20 20 19 19 19 19 19 18 18 18 18 18 18 18 18 18 18 18 18 18 18 18 18 18 17 17 17 17 17
29 27 26 25 24 24 23 22 21 21 21 21 20 20 20 20 19 19 19 19 19 19 18 18 18 18 18 18 18 18 18 18 18 18 18 18 18 18 18 18 17 17 17
29 27 26 25 24 24 23 22 22 21 21 21 20 20 20 20 19 19 19 19 19 19 19 18 18 18 18 18 18 18 18 18 18 18 18 18 18 18 18 18 17 17 17
29 28 26 25 24 24 23 22 21 21 21 21 20 20 20 20 19 19 19 19 19 19 19 19 18 18 18 18 18 18 18 18 18 18 18 18 18 18 18 18 17 17 17
29 28 27 26 25 24 23 22 22 21 21 21 20 20 20 20 20 19 19 19 19 19 19 19 19 18 18 18 18 18 18 17 17 18 18 18 18 18 18 18 18 17 17
29 28 27 26 25 24 23 23 22 21 21 20 20 20 20 20 20 19 19 19 19 19 19 19 18 18 18 18 17 17 17 17 17 17 17 17 17 17 17 18 18 17 17
28 28 27 26 25 24 23 22 21 21 20 20 20 20 20 20 20 19 19 19 19 19 18 18 18 18 18 18 17 17 17 17 17 17 17 17 17 17 17 17 17 17 17
27 27 26 25 24 23 23 22 21 21 20 20 20 20 19 19 19 19 19 19 19 18 18 18 18 18 18 18 17 17 17 17 17 17 17 17 17 17 17 17 17 17 17
26 25 25 24 23 23 22 22 21 21 20 20 20 19 19 19 19 19 19 19 19 18 18 18 18 18 17 17 17 17 17 17 17 17 17 17 17 17 17 17 17 17 17
24 24 23 23 23 22 22 21 21 20 20 20 19 19 19 19 19 19 19 19 18 18 18 18 18 17 17 17 17 17 17 17 17 17 17 17 17 17 17 17 17 16 16
23 23 23 22 22 22 22 21 21 20 20 19 19 19 19 19 19 19 18 18 18 18 18 18 17 17 17 17 17 17 17 17 17 17 17 17 17 17 16 16 16 16 16
23 22 22 21 21 21 21 21 21 20 20 19 19 19 18 18 18 18 18 18 18 18 18 17 17 17 17 17 17 17 17 17 17 16 16 16 16 16 16 16 16 16 16
22 21 21 21 21 21 20 20 20 20 19 19 19 18 18 18 18 18 17 17 17 17 17 17 17 17 17 17 17 17 16 16 16 16 16 16 16 16 16 16 16 16 16
21 20 20 20 20 20 19 19 19 19 19 19 18 18 17 17 17 17 17 17 17 17 17 17 17 16 16 16 16 16 16 16 16 16 16 16 16 16 16 15 15 15 15
20 20 20 20 19 19 18 18 18 18 18 18 17 17 17 17 17 16 16 16 17 17 16 16 16 16 16 16 16 16 16 15 16 16 16 15 15 15 15 15 15 15 15
19 19 19 19 18 18 18 18 18 17 17 17 17 17 16 16 16 16 16 16 16 16 16 16 16 16 16 16 16 16 15 15 15 15 15 15 15 15 15 14 14 14 15
18 18 18 18 18 17 17 17 17 17 17 16 16 16 16 16 16 16 16 16 16 15 15 15 15 15 16 16 16 15 15 15 15 15 14 15 15 15 14 14 14 14 14
18 18 17 17 17 17 17 16 16 16 16 16 16 16 16 16 15 15 15 15 15 15 15 15 15 15 15 15 15 15 15 14 14 14 14 14 14 14 14 14 14 14 13
17 17 16 16 16 16 16 16 15 15 15 15 15 15 15 15 15 15 15 15 15 15 15 14 14 14 14 15 15 15 14 14 14 14 13 13 13 13 13 13 13 13 13
16 16 16 15 15 15 15 15 15 15 15 15 15 14 14 15 15 14 14 14 14 14 14 14 14 14 14 14 14 14 13 13 13 13 13 13 13 13 13 13 13 13 13
15 15 15 15 14 14 14 14 14 14 14 14 14 14 14 14 14 14 14 14 14 14 14 14 14 14 13 13 14 13 13 13 13 13 12 12 12 12 12 12 12 12 12
15 15 14 14 14 14 14 14 14 14 14 13 13 13 13 14 14 14 14 14 14 14 14 14 14 14 13 13 13 13 13 13 12 12 12 12 12 12 12 12 12 12 12
Wind_Speed
16 15 14 14 14 12 10 9 8 7 6 5 5 4 4 3 3 3 5 5 4 5 4 2 3 2 1 2 2 2 2 2 2 1 1 1 2 3 2 2 2 3 5
17 16 15 14 14 13 11 10 9 9 7 5 4 4 4 4 4 3 5 6 6 5 5 4 3 3 2 3 3 2 2 2 3 2 2 1 1 2 3 3 3 3 2
19 17 16 14 14 14 13 12 10 9 8 7 5 4 3 3 3 4 4 4 5 5 3 4 3 3 4 3 4 4 4 3 3 3 2 2 2 2 2 3 3 3 3
18 18 17 16 15 15 14 11 11 9 8 8 7 7 6 5 5 4 4 4 5 4 4 4 4 3 3 3 4 4 4 4 4 3 4 3 2 1 1 2 3 3 3
18 18 17 15 15 15 15 13 11 10 9 8 7 6 5 4 4 4 4 4 4 4 4 4 4 3 3 3 3 3 4 4 4 3 3 3 3 3 2 2 3 3 3
17 17 16 14 13 14 14 14 12 10 9 9 8 7 6 5 4 4 5 5 4 4 5 5 4 4 3 3 3 3 4 3 3 3 3 3 3 3 3 3 3 3 3
16 16 17 16 14 14 13 13 13 11 10 10 8 7 6 5 5 5 5 4 4 4 4 4 4 3 3 3 3 3 3 4 4 4 4 4 4 3 3 3 3 2 2
16 16 16 15 14 14 14 14 13 11 10 9 8 6 6 5 5 5 4 4 3 3 3 4 4 4 4 4 3 4 4 4 4 5 5 4 4 3 4 3 3 2 2
15 16 15 15 14 13 12 13 13 11 10 10 8 7 6 5 5 4 4 3 2 3 4 4 4 4 4 4 3 3 4 4 5 5 5 5 4 3 3 3 3 3 3
13 14 14 14 13 12 11 12 13 11 10 9 8 8 7 5 4 4 4 3 2 2 3 3 4 4 4 5 4 4 4 4 4 4 4 5 4 4 4 4 3 3 3
11 12 12 11 11 11 11 10 11 11 10 9 7 6 7 6 5 4 3 3 3 3 3 3 3 4 4 4 4 5 5 4 4 4 4 5 5 4 4 3 3 3 3
8 9 11 11 9 9 9 9 9 10 10 9 8 7 6 6 5 5 4 3 3 3 3 3 3 4 4 4 5 6 5 4 5 4 5 5 5 5 4 4 4 3 3
6 7 9 10 8 8 8 8 8 8 9 9 8 7 7 6 6 5 4 4 3 3 3 3 3 4 3 3 4 4 4 4 4 4 5 5 5 5 4 5 4 3 4
6 6 7 7 6 6 7 7 8 7 8 8 8 8 7 6 5 4 4 4 4 4 4 4 4 4 4 4 4 4 5 5 5 5 5 5 5 5 5 5 4 4 4
7 6 7 7 6 5 5 6 6 6 6 7 7 7 6 5 5 5 5 5 5 5 4 4 4 4 5 5 4 5 5 5 5 5 4 4 4 3 3 4 2 3 4
5 5 6 6 6 5 5 4 4 5 5 6 6 6 5 5 5 5 5 5 5 4 4 4 4 5 5 4 5 4 4 4 4 5 4 4 4 4 4 3 2 2 4
5 4 4 4 5 5 5 4 3 3 4 4 4 5 5 5 5 5 5 5 4 4 4 4 4 5 4 4 3 4 4 5 5 5 4 5 4 4 3 4 4 4 5
5 4 3 4 4 4 4 3 3 2 3 3 4 4 4 4 4 4 4 4 4 4 4 4 4 4 4 4 4 4 5 5 5 5 4 4 3 3 2 2 3 4 4
5 4 3 3 4 4 3 2 2 2 2 3 3 3 4 3 3 3 3 3 3 3 4 4 4 4 3 4 4 4 4 4 5 6 5 4 4 3 3 4 4 4 4
5 4 4 4 3 3 2 2 2 1 0 1 1 1 2 3 3 3 2 2 3 3 4 4 4 4 4 5 5 5 4 4 5 4 4 4 5 5 5 5 5 6 5
5 4 4 4 3 2 2 2 2 1 0 0 0 1 1 2 2 2 2 2 3 3 4 4 4 4 4 4 4 5 4 4 5 4 3 2 4 5 6 6 5 6 5
5 5 4 4 3 3 3 2 2 2 1 1 0 1 1 2 2 1 2 2 3 3 3 4 5 4 3 3 4 5 6 5 5 4 2 2 4 4 5 5 6 6 5
4 4 4 4 4 3 2 2 2 2 2 2 2 2 2 2 2 2 3 3 2 3 3 4 4 3 2 2 3 4 5 5 4 3 2 2 3 3 4 7 7 6 5
3 3 3 3 3 3 2 1 1 2 2 2 2 2 3 3 2 2 3 2 2 2 2 3 3 2 1 1 1 1 2 3 3 2 2 1 3 4 5 4 5 5 4
3 3 3 2 2 2 2 2 2 1 2 3 3 3 3 2 2 3 2 2 1 1 3 3 2 2 2 2 1 2 2 2 2 1 2 2 2 3 3 3 3 4 3
2 2 2 2 3 2 2 3 3 1 3 3 3 3 3 2 3 3 2 1 2 2 3 2 2 2 1 1 1 2 2 3 3 1 3 3 4 4 4 3 3 3 3
Wind_Direction
173 168 171 167 164 161 162 166 169 161 165 170 175 174 174 177 167 163 154 162 178 180 178 179 164 188 176 174 181 161 181 195 177 159 174 242 204 189 182 196 181 182 173
172 171 174 172 169 166 167 169 171 169 176 174 181 175 172 180 172 167 153 169 182 190 191 186 198 192 193 200 192 188 211 212 183 174 175 201 210 229 210 190 192 197 176
174 174 178 177 173 171 172 176 176 174 182 174 176 177 166 186 171 168 162 176 192 199 209 184 206 208 209 203 201 206 209 219 215 201 198 200 207 192 198 206 195 192 193
174 174 178 180 179 175 176 171 172 173 177 179 187 189 189 192 182 169 172 179 191 195 202 196 205 229 224 218 216 204 215 219 230 223 220 215 213 194 198 207 194 196 196
175 175 180 180 179 177 175 171 169 173 178 186 190 199 199 189 178 164 173 180 188 196 200 199 199 216 222 228 223 217 222 226 230 232 220 215 224 224 211 215 198 195 196
172 170 173 170 175 174 173 170 166 173 178 186 192 198 204 194 181 175 178 190 193 201 200 199 201 212 215 226 225 226 217 226 236 243 235 213 216 216 209 216 212 203 203
170 169 169 170 174 172 170 167 166 175 181 187 192 192 197 194 187 187 194 207 197 195 200 201 198 206 211 219 219 229 228 227 234 241 244 236 234 227 216 213 222 216 203
172 170 171 170 173 174 169 165 166 173 180 184 185 187 184 195 196 204 206 208 205 191 177 191 204 205 215 224 218 226 231 231 235 243 246 246 244 233 222 211 207 228 228
173 170 170 170 171 173 169 165 163 170 178 184 181 181 184 196 200 198 206 213 194 194 183 197 209 214 223 238 229 235 239 235 231 237 239 241 241 231 233 229 214 210 227
168 164 165 168 170 170 163 163 163 170 174 180 183 185 190 193 191 195 209 201 197 193 192 202 211 217 228 236 234 241 238 237 242 244 250 246 249 234 228 236 237 220 215
163 159 154 155 159 161 162 160 161 166 171 177 180 182 182 187 187 196 205 198 197 190 204 214 220 223 230 236 237 241 242 240 250 254 250 246 254 253 244 239 235 229 217
143 141 141 141 152 157 158 162 164 171 174 174 175 178 177 180 189 196 201 196 194 198 208 212 226 239 236 232 236 244 246 241 244 252 255 251 245 240 249 246 238 231 220
108 118 130 137 150 154 155 161 166 172 173 172 171 172 185 188 193 194 196 197 196 205 219 218 230 246 245 238 239 243 250 249 249 247 249 249 245 241 243 241 241 234 229
107 115 126 127 134 145 151 158 169 171 171 170 173 179 185 186 189 190 194 198 201 206 216 227 233 241 246 248 253 247 248 247 250 251 248 248 245 242 240 239 235 237 238
124 125 125 128 134 133 142 147 156 161 166 171 177 179 177 177 183 192 198 200 205 213 214 225 236 241 243 244 249 250 245 246 249 250 242 237 234 235 238 243 241 237 237
115 120 119 135 140 137 139 139 154 156 160 170 175 172 177 184 192 197 202 205 208 215 218 223 233 243 247 242 234 241 252 251 251 247 238 233 221 211 204 207 219 228 235
111 105 116 124 123 126 126 131 122 130 150 162 167 167 179 190 195 204 207 215 219 221 230 231 232 239 243 229 230 241 245 251 252 249 244 249 241 208 202 202 209 222 233
103 90 90 102 107 103 113 116 133 138 152 164 168 167 184 198 199 201 214 225 230 231 238 238 235 238 246 228 228 245 246 252 251 247 246 246 249 239 214 223 234 234 239
81 82 88 93 108 105 96 115 145 160 176 176 181 180 187 196 200 206 223 236 239 244 245 244 242 236 240 237 234 234 252 249 249 247 243 230 223 209 205 219 238 242 242
72 60 59 59 78 96 121 121 120 107 154 218 218 207 198 203 208 204 220 235 242 250 254 246 246 234 226 225 226 229 253 254 254 253 245 229 204 192 203 226 231 239 240
66 60 55 52 59 73 102 114 101 92 70 14 311 211 186 213 214 200 221 238 248 254 257 251 248 241 228 220 218 223 246 257 260 257 245 223 182 200 219 230 238 238 242
54 55 62 50 45 63 74 74 45 22 21 23 339 327 270 255 241 224 247 247 243 251 261 263 255 242 218 211 231 236 242 260 263 259 248 218 195 214 225 229 239 248 247
61 53 57 50 40 51 55 48 21 16 2 351 341 334 295 265 258 243 255 255 249 251 258 259 259 257 234 203 214 237 252 257 263 279 276 224 210 224 232 233 236 241 238
55 54 66 51 33 32 23 9 11 15 345 329 320 299 284 268 269 260 261 261 259 264 276 272 269 279 283 278 244 256 261 277 270 273 291 245 239 257 254 237 235 230 230
47 34 36 33 14 17 9 0 12 359 306 294 293 292 272 259 266 265 276 276 288 266 260 277 279 268 263 268 252 241 253 256 260 276 247 230 230 237 244 237 227 222 219
42 36 9 353 352 355 7 358 345 317 286 281 278 274 279 278 262 247 270 334 250 220 210 226 255 297 314 155 185 218 209 213 215 226 251 235 229 234 234 235 233 226 223
Height
1503 1507 1510 1513 1516 1518 1520 1522 1524 1526 1527 1529 1531 1532 1533 1535 1536 1537 1538 1538 1539 1540 1541 1542 1543 1545 1546 1547 1548 1549 1550 1551 1552 1553 1553 1554 1554 1555 1555 1556 1556 1557 1557
1499 1503 1507 1511 1513 1515 1518 1520 1522 1524 1526 1528 1529 1531 1533 1534 1535 1536 1537 1538 1539 1540 1541 1541 1543 1544 1545 1546 1547 1547 1548 1550 1551 1551 1552 1553 1554 1553 1553 1554 1554 1555 1555
1493 1498 1503 1507 1510 1513 1515 1518 1520 1522 1524 1526 1528 1531 1532 1533 1535 1536 1536 1537 1538 1539 1540 1541 1542 1543 1544 1544 1545 1546 1547 1547 1549 1550 1551 1551 1550 1551 1552 1552 1552 1553 1553
1489 1494 1499 1503 1507 1510 1513 1515 1518 1520 1522 1525 1527 1529 1530 1532 1533 1534 1535 1536 1537 1538 1539 1540 1540 1541 1542 1543 1543 1544 1545 1545 1546 1547 1548 1549 1549 1550 1550 1550 1550 1551 1551
1484 1490 1495 1499 1503 1507 1510 1513 1515 1518 1520 1523 1525 1527 1529 1531 1532 1533 1534 1535 1536 1537 1537 1538 1539 1539 1540 1541 1541 1542 1542 1543 1544 1545 1545 1546 1547 1547 1548 1548 1549 1549 1549
1479 1485 1491 1496 1500 1504 1507 1510 1512 1515 1518 1520 1523 1525 1527 1529 1530 1531 1532 1533 1534 1535 1536 1536 1537 1537 1538 1538 1539 1539 1540 1541 1541 1542 1543 1544 1544 1544 1545 1546 1546 1547 1547
1476 1481 1487 1491 1496 1500 1504 1507 1509 1512 1515 1518 1520 1523 1524 1526 1528 1529 1530 1531 1532 1533 1534 1535 1535 1535 1536 1536 1537 1537 1538 1538 1539 1540 1540 1541 1541 1542 1543 1544 1544 1545 1545
1472 1478 1483 1488 1493 1497 1501 1503 1506 1509 1512 1515 1517 1520 1522 1524 1525 1527 1528 1529 1530 1531 1532 1532 1533 1533 1534 1534 1534 1535 1535 1536 1536 1537 1537 1538 1538 1539 1540 1541 1542 1542 1543
1468 1474 1480 1485 1490 1494 1497 1500 1503 1506 1509 1512 1515 1517 1519 1521 1523 1525 1526 1527 1528 1529 1529 1530 1530 1531 1531 1531 1532 1532 1532 1533 1533 1534 1534 1535 1535 1536 1537 1538 1539 1540 1540
1465 1471 1476 1482 1487 1492 1495 1498 1500 1503 1506 1510 1512 1515 1517 1518 1520 1522 1523 1524 1525 1526 1527 1527 1527 1528 1528 1529 1529 1529 1529 1530 1530 1530 1531 1531 1532 1533 1534 1535 1535 1536 1537
1464 1468 1474 1480 1485 1489 1493 1496 1498 1501 1504 1507 1509 1512 1514 1515 1517 1519 1520 1521 1522 1523 1524 1524 1524 1525 1525 1526 1526 1526 1527 1527 1527 1527 1527 1527 1528 1529 1530 1531 1532 1533 1533
1465 1468 1473 1478 1483 1487 1490 1493 1496 1499 1501 1504 1507 1509 1510 1513 1514 1515 1517 1518 1519 1520 1521 1521 1521 1522 1522 1522 1523 1523 1523 1524 1523 1523 1523 1523 1524 1525 1526 1528 1528 1529 1530
1466 1469 1473 1477 1481 1484 1488 1491 1494 1496 1499 1501 1504 1506 1507 1510 1511 1512 1514 1515 1516 1517 1518 1518 1518 1519 1519 1519 1519 1519 1519 1520 1520 1520 1519 1520 1521 1521 1522 1524 1525 1526 1527
1467 1470 1472 1476 1480 1484 1486 1489 1492 1494 1496 1499 1500 1502 1504 1506 1508 1509 1510 1511 1512 1513 1514 1514 1515 1515 1515 1515 1515 1516 1515 1515 1515 1516 1516 1516 1516 1517 1518 1519 1520 1522 1523
1468 1470 1472 1475 1479 1482 1485 1488 1490 1492 1494 1496 1497 1499 1501 1503 1505 1506 1507 1508 1509 1510 1511 1511 1511 1512 1512 1512 1512 1512 1512 1512 1512 1512 1512 1512 1512 1513 1514 1515 1516 1517 1518
1469 1471 1473 1476 1478 1481 1484 1486 1488 1490 1492 1493 1495 1497 1498 1500 1502 1503 1504 1505 1505 1506 1507 1507 1508 1508 1508 1508 1508 1508 1508 1508 1508 1508 1508 1508 1509 1509 1510 1511 1512 1513 1514
1471 1472 1474 1475 1478 1480 1482 1484 1486 1488 1490 1491 1493 1494 1495 1497 1498 1500 1501 1501 1502 1503 1503 1504 1504 1504 1504 1504 1504 1504 1504 1504 1504 1504 1504 1504 1505 1505 1506 1506 1507 1508 1509
1471 1472 1475 1476 1478 1480 1481 1483 1485 1486 1487 1489 1491 1491 1492 1494 1495 1495 1497 1498 1498 1499 1499 1500 1500 1500 1500 1500 1500 1500 1500 1500 1500 1500 1500 1500 1500 1501 1501 1502 1503 1503 1504
1473 1474 1475 1476 1478 1479 1480 1482 1484 1484 1486 1487 1488 1489 1490 1491 1492 1492 1493 1494 1494 1495 1495 1496 1496 1496 1496 1496 1496 1496 1495 1495 1495 1495 1495 1496 1496 1496 1497 1497 1498 1499 1499
1473 1475 1476 1477 1478 1479 1480 1481 1482 1483 1484 1484 1485 1487 1487 1487 1488 1489 1489 1490 1490 1491 1492 1492 1492 1492 1492 1492 1492 1491 1491 1491 1491 1491 1491 1491 1491 1492 1492 1493 1493 1493 1494
1474 1475 1477 1478 1479 1479 1480 1481 1481 1482 1483 1483 1483 1484 1483 1484 1485 1486 1486 1486 1486 1486 1487 1488 1488 1488 1488 1488 1488 1487 1487 1487 1486 1486 1486 1487 1487 1487 1488 1488 1488 1489 1490
1475 1476 1477 1478 1479 1479 1479 1479 1480 1481 1481 1481 1481 1480 1481 1481 1482 1483 1483 1483 1483 1482 1483 1483 1484 1484 1484 1484 1484 1483 1483 1483 1483 1482 1482 1483 1483 1483 1484 1484 1484 1485 1486
1475 1476 1477 1478 1478 1478 1478 1478 1479 1479 1479 1478 1478 1478 1479 1479 1480 1480 1480 1480 1479 1479 1480 1480 1481 1480 1480 1479 1479 1479 1479 1479 1479 1478 1478 1479 1479 1479 1479 1480 1480 1481 1481
1476 1477 1477 1477 1477 1477 1477 1477 1477 1476 1476 1476 1476 1476 1476 1476 1477 1477 1477 1477 1477 1477 1477 1477 1477 1477 1476 1475 1475 1475 1475 1475 1475 1474 1474 1474 1475 1475 1475 1475 1476 1476 1477
1476 1476 1476 1476 1476 1476 1476 1475 1475 1474 1474 1474 1474 1474 1474 1474 1474 1474 1474 1474 1474 1474 1474 1474 1474 1474 1472 1472 1472 1471 1470 1471 1471 1470 1470 1470 1470 1470 1471 1471 1471 1472 1472
1474 1474 1475 1475 1475 1474 1473 1472 1472 1472 1472 1472 1472 1472 1472 1471 1471 1472 1471 1471 1472 1472 1472 1471 1471 1470 1470 1469 1467 1467 1466 1466 1467 1467 1466 1466 1466 1466 1466 1467 1467 1467 1467